Flag for U.S.A. Weather past 2 weeks in Brockton, Massachusetts, U.S.A.

Now
57 °F

Cool.


Feels Like: 54 °F
Forecast: 56 / 84 °F
Wind: 13 mph from West

Location: East Milton

Current Time: Jul 5, 2015 at 6:40:13 AM

Latest Report: Jul 5, 2015 at 5:54 AM


Visibility: N/A

Pressure: 30.04 "Hg

Humidity: 93%

Dew point: 55 °F

Location of BrocktonLocation

Historic Weather in Brockton — Graph

°F

Brockton temperature yesterday

Maximum temperature yesterday: 73 °F (at 11:54 AM)
Minimum temperature yesterday: 60 °F (at 2:54 AM)
Average temperature yesterday: 66 °F

Past Weeks' High & Low Weather Summary

 TemperatureHumidityPressure
High84 °F (Jun 22, 2:54 PM)100% (Jun 21, 1:54 AM)30.21 "Hg (Jun 21, 1:54 AM)
Low50 °F (Jun 28, 8:54 PM)39% (Jul 3, 1:54 PM)29.66 "Hg (Jun 21, 3:54 PM)
Average67 °F74%29.94 "Hg
* Reported Jun 20 4:54 AM — Jul 5 4:54 AM, Brockton, Weather by CustomWeather, © 2015

Note: Actual official high and low records may vary slightly from our data, if they occured in-between our weather recording intervals... More about our weather records

Advertising

Brockton weather history for previous 24 hours

 ConditionsComfort  
Time TempWeatherWind HumidityBarometerVisibility
4:54 AM
Sun, Jul 5
58 °FCool.14 mph90%30.03 "HgN/A
3:54 AM59 °FCool.13 mph90%30.02 "HgN/A
2:54 AM59 °FCool.10 mph93%30.02 "HgN/A
1:54 AM61 °FCool.9 mph90%30.02 "HgN/A
12:54 AM60 °FCool.8 mph96%30.02 "HgN/A
11:54 PM
Sat, Jul 4
61 °FCool.6 mph81%30.01 "HgN/A
10:54 PM63 °FMild.No wind70%30.01 "HgN/A
9:54 PM63 °FMild.No wind81%30.01 "HgN/A
8:54 PM64 °FMild.6 mph70%29.98 "HgN/A
7:54 PM64 °FMild.9 mph65%29.98 "HgN/A
6:54 PM67 °FMild.6 mph66%29.97 "HgN/A
5:54 PM68 °FMild.6 mph76%29.97 "HgN/A
4:54 PM69 °FMild.6 mph76%29.98 "HgN/A
3:54 PM71 °FMild.No wind68%30.00 "HgN/A
2:54 PM72 °FMild.3 mph57%30.01 "HgN/A
1:54 PM71 °FMild.3 mph53%30.00 "HgN/A
12:54 PM72 °FMild.3 mph52%30.00 "HgN/A
11:54 AM73 °FMild.5 mph55%30.01 "HgN/A
10:54 AM69 °FMild.3 mph66%30.02 "HgN/A
9:54 AM67 °FMild.3 mph73%30.02 "HgN/A
8:54 AM65 °FMild.6 mph81%30.02 "HgN/A
7:54 AM64 °FMild.7 mph75%30.03 "HgN/A
6:54 AM64 °FMild.7 mph78%30.01 "HgN/A
Weather by CustomWeather, © 2015

See weather overviewHow to use our weather pages